Temperature
7 8 8 8 8 8 7 6 6 7 7 7 7 7 7 6 6 5 4 4 3 3 2 2 2 2 2 2 2 2 3 3 3 3 3 3 3 3 3 3 3 3 3 3
7 8 8 8 8 8 7 7 7 7 7 8 8 8 7 6 6 5 4 4 3 3 2 2 2 2 2 2 2 2 2 2 2 2 2 3 3 3 3 3 3 3 3 3
7 9 8 7 8 8 7 7 7 7 7 7 7 7 7 6 6 5 4 4 3 3 2 2 2 2 2 2 2 2 2 1 1 1 2 2 2 2 2 2 2 2 2 2
6 7 7 8 9 9 8 8 7 7 7 7 7 7 7 7 6 5 5 4 3 3 3 2 2 2 2 2 1 1 1 1 1 1 1 1 1 1 1 1 1 1 1 1
6 6 7 8 8 8 7 7 7 7 7 7 7 6 6 7 6 5 5 4 4 3 3 2 2 2 2 2 1 1 1 1 1 0 0 0 1 1 1 1 1 1 1 1
6 6 6 8 7 8 7 6 7 7 6 6 6 4 5 6 6 5 5 4 4 3 3 2 2 2 2 1 1 1 1 1 1 0 0 0 0 0 0 1 0 0 0 0
5 5 7 7 7 7 6 6 7 7 7 6 5 5 6 6 5 5 4 4 4 3 3 2 2 2 1 1 1 1 1 1 1 0 0 0 0 0 0 0 0 0 0 0
5 5 6 7 6 6 6 7 7 6 6 6 6 6 5 5 5 4 4 4 3 3 3 2 2 2 1 1 1 1 1 0 0 0 0 0 0 -0 -0 -0 -0 -0 -0 -0
6 6 7 7 7 7 7 6 6 6 5 5 5 5 5 4 4 4 4 4 3 3 3 2 2 2 1 1 1 0 0 0 0 -0 -0 -0 -0 -0 -1 -1 -1 -1 -1 -1
5 6 7 8 7 7 6 6 5 5 5 4 4 4 4 4 4 4 4 3 3 3 3 2 2 2 1 1 0 0 0 -0 -0 -0 -1 -1 -1 -1 -1 -1 -1 -2 -2 -2
4 6 7 7 7 6 6 5 5 5 5 4 4 4 4 4 4 3 3 3 3 2 2 2 2 2 1 1 0 0 -0 -0 -0 -1 -1 -1 -1 -1 -1 -1 -2 -2 -2 -2
5 6 5 6 6 6 5 5 5 4 4 4 4 4 3 3 3 3 3 3 2 2 2 2 1 1 1 1 0 -0 -1 -1 -1 -1 -1 -1 -1 -1 -2 -2 -2 -2 -2 -3
6 6 6 6 5 5 5 5 4 4 4 4 4 3 3 3 3 3 2 2 2 2 2 1 1 1 1 0 -0 -1 -1 -1 -1 -1 -2 -2 -2 -2 -2 -2 -2 -2 -3 -3
6 5 5 5 5 5 4 4 4 4 4 3 3 3 3 3 3 2 2 2 2 1 1 1 1 1 0 -0 -0 -1 -1 -1 -2 -2 -2 -2 -2 -2 -3 -3 -2 -2 -3 -3
5 5 5 4 4 4 4 4 3 3 3 3 3 3 3 2 2 2 2 2 1 1 1 1 0 0 -0 -1 -1 -1 -1 -2 -2 -2 -2 -2 -2 -3 -3 -3 -3 -3 -3 -3
4 4 4 4 4 4 3 3 3 3 3 3 3 2 2 2 2 1 1 1 1 1 1 0 0 -0 -1 -1 -1 -1 -2 -2 -2 -2 -2 -3 -3 -3 -3 -3 -4 -4 -4 -4
4 3 3 3 3 3 3 3 3 3 3 3 2 2 2 2 1 1 1 1 1 0 0 0 -0 -1 -1 -1 -2 -2 -2 -2 -2 -3 -3 -3 -3 -3 -3 -4 -4 -4 -4 -4
4 3 3 3 3 3 3 3 3 2 3 2 2 2 1 1 1 1 1 0 0 0 0 -0 -1 -1 -1 -2 -2 -2 -2 -3 -3 -3 -3 -3 -4 -4 -4 -4 -4 -4 -4 -4
3 3 3 3 3 2 2 2 2 2 2 2 2 1 1 1 1 0 -0 -0 -0 -0 -0 -1 -1 -1 -2 -2 -2 -3 -3 -3 -3 -3 -3 -4 -4 -4 -4 -5 -5 -5 -5 -5
3 3 3 3 3 2 2 2 2 2 2 1 1 1 1 1 0 -0 -0 -1 -0 -1 -1 -1 -2 -2 -2 -2 -3 -3 -3 -3 -4 -4 -4 -4 -4 -5 -5 -5 -5 -5 -5 -5
3 3 3 3 2 2 2 2 2 1 1 1 1 1 0 0 -0 -1 -1 -1 -1 -1 -2 -2 -2 -2 -2 -3 -3 -3 -4 -4 -4 -4 -4 -4 -5 -5 -5 -5 -5 -5 -5 -5
3 3 3 2 2 2 2 2 1 1 1 1 0 0 -0 -0 -1 -1 -1 -1 -1 -2 -2 -2 -2 -3 -3 -3 -4 -4 -4 -4 -4 -5 -5 -5 -5 -5 -5 -5 -6 -6 -6 -6
3 3 2 2 2 2 2 1 1 1 0 0 0 -0 -0 -1 -1 -2 -2 -1 -2 -2 -2 -3 -3 -3 -4 -4 -4 -4 -4 -5 -5 -5 -5 -5 -5 -5 -6 -6 -6 -6 -6 -6
3 2 2 2 2 1 1 1 0 0 -0 -0 -0 -1 -1 -1 -1 -2 -2 -2 -2 -3 -3 -3 -3 -3 -4 -4 -4 -4 -5 -5 -5 -5 -5 -6 -6 -6 -6 -6 -6 -6 -6 -6
2 2 2 2 1 1 1 0 -0 -0 -0 -1 -1 -1 -1 -2 -2 -2 -2 -3 -3 -3 -3 -3 -4 -4 -4 -4 -5 -5 -5 -5 -5 -6 -6 -6 -6 -6 -6 -6 -6 -6 -6 -6
2 2 1 1 1 0 0 -0 -1 -1 -1 -1 -1 -1 -2 -2 -2 -3 -3 -3 -3 -3 -4 -4 -4 -4 -5 -5 -5 -5 -5 -5 -6 -6 -6 -6 -6 -6 -6 -6 -6 -7 -7 -7
1 1 1 1 0 0 -0 -1 -1 -1 -1 -1 -2 -2 -2 -3 -3 -3 -3 -3 -4 -4 -4 -4 -4 -5 -5 -5 -5 -6 -6 -6 -6 -6 -6 -6 -7 -7 -7 -7 -7 -7 -7 -7
Wind_Speed
7 8 6 8 8 7 8 7 5 5 6 7 4 3 1 1 1 2 2 3 4 5 5 6 6 6 6 6 6 6 6 6 6 5 4 4 4 4 4 4 4 4 4 3
6 6 7 8 9 8 8 8 9 9 8 5 3 2 2 2 2 2 2 2 3 4 5 5 6 6 6 6 6 6 6 6 6 6 5 5 5 4 4 4 4 4 3 3
4 3 5 6 6 7 4 4 5 7 5 2 2 3 4 3 3 3 2 2 2 3 3 4 4 5 5 5 6 6 6 6 6 6 6 5 6 5 5 5 4 4 3 3
4 6 5 3 2 1 4 4 4 4 4 3 3 4 3 3 3 3 2 2 1 1 3 3 3 4 4 4 5 5 6 6 6 6 6 5 5 5 4 4 4 3 3 3
3 4 6 2 2 1 2 3 3 4 4 3 2 3 3 2 3 3 2 1 0 0 1 2 3 3 3 4 4 5 5 6 6 6 5 5 5 5 4 4 4 4 4 4
3 3 4 2 2 2 1 3 1 1 2 2 0 2 3 0 1 1 1 1 1 1 1 1 2 2 2 3 4 4 5 5 5 5 5 4 4 4 4 4 4 4 4 3
5 5 5 1 2 2 2 4 1 0 2 2 3 4 3 1 1 2 2 2 2 1 1 1 1 1 2 3 3 4 4 5 5 5 5 4 4 4 4 4 4 4 4 4
4 5 7 2 3 3 3 1 1 2 2 3 4 4 3 2 2 3 2 2 2 2 2 1 1 1 2 3 3 3 4 4 5 5 5 4 4 4 4 3 4 4 4 5
6 6 3 5 5 3 0 2 3 3 4 3 4 4 4 3 3 3 3 3 3 3 2 2 1 1 2 3 2 3 3 4 4 5 4 4 4 4 4 3 3 4 4 4
5 7 5 5 5 4 3 4 4 4 4 4 5 5 4 4 3 3 3 4 3 3 3 3 2 2 2 2 1 2 3 4 4 4 4 4 4 3 3 3 3 4 4 4
7 7 6 5 4 3 2 3 4 4 4 4 5 5 5 4 4 3 3 3 3 4 4 4 3 3 2 1 2 2 3 3 3 3 4 4 4 4 4 3 4 4 4 4
7 5 4 3 1 0 2 4 4 4 5 4 4 5 5 5 4 3 3 3 4 5 5 4 3 3 3 2 2 3 3 3 3 3 3 3 4 5 5 5 7 7 6 6
7 4 4 5 2 1 3 4 4 4 5 4 4 4 4 4 3 3 3 4 5 5 5 4 4 4 3 2 2 3 4 3 3 3 3 3 3 4 5 6 7 7 7 8
6 5 6 5 4 3 4 4 4 4 4 4 3 3 3 3 3 3 4 4 4 4 4 4 4 5 4 3 3 4 4 4 4 3 3 4 4 4 4 4 5 5 6 8
7 7 7 4 4 4 3 3 4 4 4 4 3 3 3 4 4 5 4 3 3 4 4 4 5 5 3 3 4 4 4 3 3 3 3 3 4 4 4 4 4 5 5 6
6 6 6 6 6 5 4 5 5 6 5 5 4 4 4 4 4 4 4 3 4 5 5 5 5 4 3 3 4 4 4 5 4 3 3 3 4 4 4 4 4 4 4 4
6 6 6 6 7 7 7 6 6 6 5 5 5 4 3 3 4 4 4 4 5 5 5 5 5 4 4 4 4 4 4 4 6 4 4 4 4 4 4 4 4 4 4 5
8 8 7 6 6 6 6 6 6 5 5 5 4 3 4 5 6 6 5 4 4 5 5 4 4 4 4 4 4 4 4 4 4 4 4 4 4 4 4 4 5 5 5 5
6 6 6 6 6 6 6 5 5 5 4 4 4 5 6 6 5 5 4 4 5 7 6 5 6 5 4 5 5 3 4 4 4 4 4 6 5 4 4 5 5 5 4 4
5 5 6 6 5 5 5 5 4 4 4 4 5 5 6 6 5 5 5 6 7 5 5 4 5 5 5 5 5 4 4 5 5 5 4 4 5 5 5 5 5 5 5 4
6 6 6 6 6 6 6 5 5 5 5 5 6 7 7 6 5 5 5 7 6 4 4 6 4 4 4 5 6 4 5 5 5 5 5 5 5 5 5 5 5 5 4 4
6 5 6 6 5 6 5 5 5 6 5 6 6 6 6 6 6 6 7 7 5 5 4 4 4 5 6 6 4 5 5 5 5 5 4 4 5 5 5 5 5 5 4 4
5 5 6 6 6 5 5 4 5 6 6 7 7 7 7 7 5 5 7 5 4 6 5 4 6 8 9 5 4 5 5 5 5 5 5 5 5 5 5 5 5 5 4 4
5 5 5 5 4 4 5 6 5 5 6 6 7 7 6 5 5 5 5 6 7 7 5 7 9 9 8 4 5 5 5 5 5 5 5 4 4 5 5 5 5 4 4 5
6 5 5 4 5 6 6 5 4 5 5 5 6 6 5 5 5 4 4 4 7 7 5 7 9 9 6 4 5 5 5 5 5 5 4 4 4 5 5 5 4 4 4 4
6 6 6 6 6 5 4 4 4 4 4 5 5 4 4 3 4 4 4 4 6 6 5 4 5 6 5 5 5 5 5 5 6 5 5 5 5 5 5 5 5 4 4 4
6 5 4 4 5 5 5 5 5 6 5 5 5 4 4 3 3 4 4 4 4 4 4 4 4 4 4 4 5 5 4 4 4 4 4 4 4 4 4 5 4 4 4 4
Wind_Direction
275 275 269 261 256 233 222 233 251 276 282 276 280 271 254 243 278 309 340 355 357 355 355 357 357 357 1 3 6 10 15 15 11 12 14 19 19 14 7 11 12 7 5 7
277 253 250 260 252 238 235 237 250 272 285 267 271 249 243 246 251 272 302 329 347 352 353 351 351 354 358 360 1 9 17 11 4 9 15 17 13 10 10 7 3 8 10 5
287 293 295 268 242 214 214 219 232 254 262 272 277 251 242 240 246 258 271 300 324 342 341 342 348 354 357 358 360 7 11 5 1 6 11 12 11 14 8 1 3 6 1 359
292 308 258 232 73 153 217 234 230 258 278 279 270 266 251 223 221 244 250 266 295 338 337 341 351 356 359 3 4 5 4 360 358 2 5 6 9 8 359 356 358 355 353 350
284 287 275 223 150 147 223 264 233 243 268 286 322 327 285 228 202 217 208 180 165 338 337 340 347 351 355 357 1 2 356 352 352 355 355 355 357 354 351 351 350 347 345 348
268 271 265 265 117 97 84 270 326 228 267 288 90 280 270 216 157 177 158 148 150 123 21 332 327 340 345 345 353 349 343 342 344 345 345 343 343 339 340 345 343 340 344 347
241 256 267 247 148 128 177 257 335 291 250 239 229 241 274 281 235 202 195 185 165 166 216 264 305 316 319 330 335 331 334 336 337 339 340 340 338 332 335 339 342 344 346 347
209 231 252 167 144 185 228 306 309 276 265 255 260 281 291 275 245 218 208 204 191 202 230 240 237 270 293 306 317 329 330 329 328 332 335 337 332 331 332 340 347 345 347 346
211 224 216 169 200 217 190 279 284 278 282 274 276 277 278 271 255 229 215 211 207 215 233 237 227 236 267 282 311 322 318 314 316 325 326 324 327 329 332 341 345 339 337 334
265 261 252 221 216 227 234 249 267 272 276 276 271 274 273 264 256 240 225 214 209 211 230 244 243 248 257 275 280 296 300 303 312 321 321 323 325 323 326 331 336 332 328 323
254 268 282 251 229 243 254 268 276 276 265 260 266 269 264 262 254 242 240 220 206 217 232 240 237 240 248 258 277 281 287 295 303 304 306 311 316 315 316 309 311 313 308 307
236 227 228 253 252 203 261 263 265 272 276 268 251 260 263 259 247 237 237 232 225 228 236 242 236 240 237 229 251 269 279 288 292 293 297 302 309 318 318 308 311 314 313 312
241 260 264 276 270 223 245 255 254 254 258 267 266 259 258 258 251 240 240 239 237 238 239 240 239 241 233 220 241 257 263 272 282 283 285 288 295 301 310 318 316 313 315 319
235 245 261 256 251 254 251 255 254 256 257 261 268 269 265 259 256 247 245 245 248 251 246 238 240 244 231 217 234 250 257 259 264 269 275 280 283 288 291 300 311 314 314 318
233 224 229 245 258 254 249 246 252 259 263 267 263 258 253 254 255 255 255 254 254 253 251 242 245 250 230 219 234 245 252 256 256 263 269 277 281 282 283 287 293 303 314 318
228 229 230 237 246 247 241 241 248 256 254 254 254 253 252 251 255 259 255 241 243 250 249 244 248 250 229 222 234 244 250 258 261 265 268 274 277 278 281 286 291 295 299 306
215 229 231 240 246 246 240 239 244 251 250 246 248 251 256 258 261 262 260 252 247 251 248 243 248 244 224 221 229 242 250 255 254 261 258 262 268 273 276 280 284 287 290 296
224 228 224 230 239 250 253 248 246 248 248 248 246 241 246 249 254 261 265 269 269 266 254 245 247 239 224 221 228 239 243 249 250 253 257 259 264 265 272 277 281 284 291 295
224 230 232 234 236 240 245 243 244 244 246 242 237 243 247 249 251 259 262 258 258 266 265 247 243 234 229 228 230 237 242 248 255 257 256 263 268 266 267 271 276 280 283 286
232 233 232 235 234 233 239 241 241 246 245 238 240 248 255 257 253 253 253 253 246 246 250 246 239 232 230 230 231 232 237 243 250 256 258 257 261 265 268 271 275 277 278 279
233 233 233 233 238 238 235 234 236 246 250 239 236 243 251 257 254 249 253 264 258 237 239 241 234 234 230 236 233 231 235 241 245 249 254 258 263 266 268 271 274 276 276 277
227 227 231 234 238 245 241 231 230 239 246 246 244 246 251 257 255 253 248 251 259 250 244 235 231 239 243 243 229 231 236 240 244 247 249 254 259 264 267 270 271 273 274 272
226 227 230 231 233 242 248 238 233 234 239 242 243 243 244 248 246 252 266 256 242 247 247 240 244 249 251 241 230 231 235 239 242 244 247 250 254 259 264 266 267 270 270 270
230 231 233 232 225 235 249 249 240 239 240 245 244 240 240 249 256 246 247 253 250 254 251 249 250 252 250 238 231 232 234 237 240 243 245 249 252 255 259 263 265 267 269 270
229 229 225 219 227 238 244 246 246 246 247 252 252 245 237 233 243 255 248 243 250 257 258 253 253 252 245 239 235 235 236 238 241 242 241 246 251 255 258 259 260 263 264 264
223 226 227 227 230 235 232 231 242 245 243 254 260 252 247 243 241 245 247 243 244 254 255 252 247 244 238 237 238 238 238 244 249 246 242 245 250 253 259 262 263 263 264 262
225 228 230 237 238 231 229 230 237 242 237 240 255 253 244 241 238 239 242 246 248 250 250 249 245 240 239 239 240 239 237 236 236 239 241 243 247 252 257 261 265 266 266 266
Height
1485 1481 1480 1480 1479 1479 1482 1482 1482 1474 1470 1466 1465 1465 1465 1465 1465 1464 1463 1462 1460 1458 1455 1453 1450 1447 1444 1441 1438 1436 1433 1431 1429 1428 1427 1426 1425 1425 1424 1423 1423 1422 1422 1421
1483 1476 1476 1476 1473 1474 1475 1475 1474 1471 1469 1463 1463 1464 1464 1464 1463 1463 1462 1461 1459 1457 1455 1453 1450 1447 1445 1442 1439 1437 1434 1432 1430 1428 1427 1426 1425 1424 1423 1422 1422 1421 1420 1419
1484 1474 1475 1475 1467 1468 1469 1468 1469 1470 1466 1462 1462 1462 1462 1462 1461 1461 1460 1459 1458 1456 1455 1453 1450 1448 1445 1442 1440 1437 1434 1432 1430 1429 1427 1425 1424 1423 1422 1422 1420 1419 1419 1418
1487 1481 1481 1467 1461 1461 1464 1464 1464 1463 1462 1461 1461 1460 1460 1460 1459 1459 1459 1458 1457 1455 1453 1452 1450 1448 1445 1442 1440 1437 1435 1433 1431 1429 1427 1425 1424 1423 1422 1421 1420 1418 1417 1416
1489 1484 1473 1464 1462 1463 1465 1464 1460 1460 1460 1460 1459 1459 1458 1458 1457 1457 1457 1456 1455 1454 1453 1451 1449 1447 1445 1442 1440 1437 1435 1433 1431 1429 1427 1425 1424 1422 1421 1420 1418 1417 1416 1414
1488 1485 1479 1464 1462 1461 1465 1465 1458 1458 1458 1458 1458 1461 1458 1456 1455 1455 1455 1454 1453 1452 1451 1449 1448 1446 1444 1442 1440 1438 1435 1433 1431 1429 1427 1425 1423 1422 1420 1419 1417 1415 1414 1412
1489 1484 1470 1463 1461 1463 1469 1464 1458 1457 1457 1457 1457 1457 1456 1454 1453 1453 1452 1452 1451 1450 1449 1448 1446 1445 1443 1441 1439 1437 1435 1433 1431 1429 1427 1425 1423 1421 1420 1418 1416 1414 1412 1410
1482 1481 1474 1461 1461 1463 1462 1457 1456 1456 1456 1455 1454 1453 1452 1451 1451 1450 1450 1449 1448 1447 1446 1446 1445 1443 1442 1440 1439 1437 1435 1433 1431 1429 1427 1425 1422 1420 1418 1416 1414 1412 1410 1408
1471 1468 1459 1457 1457 1456 1456 1456 1455 1454 1453 1453 1452 1450 1449 1449 1448 1447 1447 1446 1446 1445 1444 1443 1442 1441 1440 1438 1437 1435 1433 1431 1429 1427 1425 1424 1421 1419 1417 1415 1412 1410 1408 1406
1464 1457 1454 1454 1453 1453 1453 1453 1452 1451 1451 1450 1448 1447 1446 1445 1445 1444 1444 1443 1443 1442 1441 1440 1440 1439 1438 1436 1435 1433 1431 1429 1428 1426 1424 1422 1420 1418 1416 1413 1411 1409 1407 1405
1461 1454 1452 1450 1450 1450 1449 1449 1448 1448 1447 1446 1445 1444 1443 1442 1441 1441 1440 1440 1439 1439 1438 1437 1436 1435 1435 1433 1432 1430 1429 1427 1425 1424 1422 1420 1418 1416 1414 1412 1410 1408 1406 1403
1454 1449 1449 1447 1447 1447 1446 1445 1445 1444 1443 1442 1441 1440 1439 1438 1438 1437 1437 1436 1436 1435 1434 1434 1433 1432 1431 1430 1429 1427 1426 1424 1423 1421 1419 1418 1416 1414 1412 1411 1408 1406 1404 1402
1445 1445 1445 1444 1444 1443 1442 1442 1441 1440 1439 1438 1438 1437 1436 1435 1434 1434 1433 1432 1432 1431 1431 1430 1429 1428 1428 1427 1425 1424 1423 1421 1420 1418 1417 1415 1413 1411 1408 1407 1405 1403 1401 1398
1440 1441 1440 1439 1439 1439 1439 1438 1437 1437 1436 1435 1434 1433 1432 1432 1431 1430 1429 1429 1428 1427 1427 1426 1425 1424 1424 1423 1422 1420 1419 1418 1417 1415 1414 1412 1410 1408 1406 1404 1401 1399 1397 1395
1435 1435 1435 1435 1435 1435 1434 1434 1433 1432 1432 1431 1430 1430 1429 1428 1427 1426 1425 1425 1424 1423 1422 1421 1420 1420 1419 1418 1417 1416 1415 1414 1413 1411 1410 1408 1407 1405 1403 1401 1399 1396 1394 1392
1429 1430 1430 1430 1430 1430 1430 1429 1429 1428 1427 1427 1426 1426 1425 1424 1423 1422 1421 1421 1419 1418 1417 1417 1416 1415 1415 1414 1413 1412 1411 1410 1409 1407 1406 1404 1403 1401 1399 1398 1396 1393 1391 1389
1424 1423 1424 1424 1425 1425 1425 1425 1424 1424 1423 1423 1422 1422 1421 1420 1419 1418 1417 1417 1415 1414 1413 1412 1411 1411 1410 1409 1408 1408 1407 1406 1405 1403 1402 1400 1399 1397 1396 1394 1392 1390 1388 1387
1418 1418 1419 1420 1420 1420 1420 1420 1420 1419 1419 1418 1418 1418 1417 1416 1415 1414 1413 1412 1411 1410 1409 1408 1407 1406 1405 1405 1404 1403 1402 1401 1400 1399 1397 1396 1395 1393 1392 1390 1389 1387 1385 1383
1412 1413 1414 1414 1415 1415 1415 1415 1415 1415 1415 1414 1413 1413 1412 1412 1411 1410 1409 1408 1406 1404 1404 1403 1402 1401 1400 1400 1399 1398 1397 1396 1395 1394 1393 1392 1391 1389 1388 1386 1385 1383 1381 1380
1408 1408 1409 1409 1410 1410 1410 1410 1410 1410 1410 1410 1409 1408 1407 1407 1406 1405 1404 1402 1401 1400 1399 1398 1397 1396 1395 1395 1394 1393 1392 1391 1391 1390 1388 1387 1386 1385 1384 1382 1381 1379 1378 1376
1404 1404 1405 1405 1405 1405 1406 1406 1405 1405 1405 1405 1404 1403 1402 1401 1400 1399 1398 1396 1396 1395 1394 1393 1392 1391 1390 1389 1389 1388 1387 1386 1386 1385 1384 1383 1382 1380 1379 1378 1377 1375 1374 1373
1401 1401 1401 1401 1401 1400 1401 1401 1401 1400 1399 1399 1398 1398 1396 1395 1394 1393 1392 1392 1390 1390 1389 1388 1387 1386 1385 1384 1383 1383 1382 1381 1381 1380 1379 1378 1377 1376 1375 1374 1372 1371 1370 1369
1397 1397 1396 1396 1396 1396 1396 1396 1395 1395 1394 1393 1393 1392 1391 1390 1389 1388 1386 1386 1385 1384 1383 1382 1382 1381 1380 1379 1378 1377 1377 1376 1376 1375 1374 1374 1373 1371 1370 1369 1368 1367 1366 1365
1393 1393 1392 1392 1392 1391 1390 1390 1390 1389 1388 1388 1387 1386 1385 1384 1383 1382 1381 1380 1380 1379 1378 1377 1376 1376 1375 1374 1373 1372 1372 1371 1371 1370 1370 1369 1368 1367 1366 1365 1364 1363 1362 1361
1388 1388 1388 1387 1386 1386 1385 1385 1384 1383 1382 1381 1380 1380 1379 1378 1377 1376 1376 1375 1374 1373 1372 1371 1371 1370 1369 1368 1368 1367 1367 1366 1366 1365 1365 1364 1363 1362 1362 1361 1360 1359 1358 1357
1383 1383 1382 1381 1381 1380 1380 1379 1378 1377 1376 1375 1374 1374 1373 1372 1372 1371 1370 1369 1369 1367 1367 1366 1365 1364 1364 1363 1362 1362 1362 1361 1361 1360 1360 1359 1359 1358 1357 1356 1355 1355 1354 1353
1377 1377 1376 1375 1375 1375 1374 1373 1372 1371 1370 1369 1368 1368 1367 1367 1366 1365 1365 1364 1363 1362 1362 1361 1360 1359 1358 1358 1357 1357 1357 1356 1356 1356 1355 1355 1354 1354 1353 1352 1351 1350 1349 1349